Zurück zum Katalog

STARLINK-5788

AktivKommunikationVLEO
NORAD 57148·PAYLOAD·🇺🇸 United States

Gestartet Jun 23, 2023 von Cape Canaveral Space Force Station

Loading…

Nächste Überflüge (nächste 24 Stunden)

TLE

AktuellSource: CelesTrak SupGP

Epoche: Sep 14, 2026, 21:36 UTC

1 57148C 23090AZ  26257.90048611  .00013769  00000+0  49877-3 0  2570
2 57148  42.9997 275.1041 0001406 259.5206 216.0232 15.27567548    14

Verfolge STARLINK-5788 in Echtzeit mit AllMySat

Download on the App Store